TimeCDT,TemperatureF,Dew PointF,Humidity,Sea Level PressureIn,VisibilityMPH,Wind Direction,Wind SpeedMPH,Gust SpeedMPH,PrecipitationIn,Events,Conditions,WindDirDegrees,DateUTC
12:52 AM,68.0,64.9,90,30.11,8.0,NE,3.5,-,N/A,,Clear,50,2013-08-14 05:52:00
1:52 AM,66.0,63.0,90,30.10,10.0,ENE,3.5,-,N/A,,Clear,70,2013-08-14 06:52:00
2:52 AM,64.9,61.0,87,30.10,10.0,ENE,5.8,-,N/A,,Clear,70,2013-08-14 07:52:00
3:52 AM,63.0,60.1,90,30.12,10.0,ENE,3.5,-,N/A,,Clear,70,2013-08-14 08:52:00
4:52 AM,63.0,60.1,90,30.11,10.0,East,5.8,-,N/A,,Clear,80,2013-08-14 09:52:00
5:52 AM,62.1,59.0,90,30.11,9.0,Calm,Calm,-,N/A,,Clear,0,2013-08-14 10:52:00
6:52 AM,61.0,57.9,90,30.11,9.0,East,3.5,-,N/A,,Clear,80,2013-08-14 11:52:00
7:52 AM,64.0,61.0,90,30.13,7.0,Calm,Calm,-,N/A,,Clear,0,2013-08-14 12:52:00
8:52 AM,68.0,62.1,81,30.14,10.0,East,4.6,-,N/A,,Clear,100,2013-08-14 13:52:00
9:52 AM,71.1,62.1,73,30.16,10.0,SE,6.9,-,N/A,,Clear,130,2013-08-14 14:52:00
10:52 AM,73.9,62.1,66,30.15,10.0,SSE,11.5,-,N/A,,Clear,150,2013-08-14 15:52:00
11:52 AM,75.0,60.1,60,30.14,10.0,SSE,12.7,-,N/A,,Clear,150,2013-08-14 16:52:00
12:52 PM,77.0,60.1,56,30.13,10.0,SSE,8.1,16.1,N/A,,Clear,150,2013-08-14 17:52:00
1:52 PM,79.0,61.0,54,30.11,10.0,South,9.2,-,N/A,,Clear,170,2013-08-14 18:52:00
2:52 PM,79.0,60.1,52,30.10,10.0,SE,8.1,-,N/A,,Clear,140,2013-08-14 19:52:00
3:52 PM,79.0,57.9,48,30.07,10.0,SE,10.4,-,N/A,,Clear,140,2013-08-14 20:52:00
4:52 PM,80.1,59.0,48,30.05,10.0,ESE,8.1,-,N/A,,Clear,110,2013-08-14 21:52:00
5:52 PM,80.1,59.0,48,30.05,10.0,SSE,6.9,-,N/A,,Partly Cloudy,150,2013-08-14 22:52:00
6:52 PM,78.1,62.1,58,30.04,10.0,SSE,4.6,-,N/A,,Clear,160,2013-08-14 23:52:00
7:52 PM,75.0,63.0,66,30.02,10.0,SE,3.5,-,N/A,,Clear,130,2013-08-15 00:52:00
8:52 PM,70.0,64.9,84,30.04,10.0,East,3.5,-,N/A,,Clear,100,2013-08-15 01:52:00
9:52 PM,69.1,63.0,81,30.05,10.0,East,4.6,-,N/A,,Clear,90,2013-08-15 02:52:00
10:52 PM,66.9,62.1,84,30.07,10.0,East,4.6,-,N/A,,Clear,100,2013-08-15 03:52:00
11:52 PM,66.9,62.1,84,30.07,10.0,ESE,3.5,-,N/A,,Clear,120,2013-08-15 04:52:00